Time,TemperatureF,DewpointF,PressureIn,WindDirection,WindDirectionDegrees,WindSpeedMPH,WindSpeedGustMPH,Humidity,HourlyPrecipIn,Conditions,Clouds,dailyrainin,SoftwareType,DateUTC
2013-10-06 00:01:00,75.1,72.0,29.95,SE,142,0.0,0.0,90,0.00,,,0.00,WeatherCatV1.02B3,2013-10-06 05:01:00,
2013-10-06 00:06:00,75.0,71.9,29.95,SE,142,0.0,1.0,90,0.00,,,0.00,WeatherCatV1.02B3,2013-10-06 05:06:00,
2013-10-06 00:11:00,74.9,71.8,29.94,SE,142,0.0,2.0,90,0.00,,,0.00,WeatherCatV1.02B3,2013-10-06 05:11:00,
2013-10-06 00:16:00,74.9,71.8,29.94,SE,142,0.0,1.0,90,0.00,,,0.00,WeatherCatV1.02B3,2013-10-06 05:16:00,
2013-10-06 00:21:00,74.8,71.7,29.94,SE,142,0.0,1.0,90,0.00,,,0.00,WeatherCatV1.02B3,2013-10-06 05:21:00,
2013-10-06 00:26:00,74.7,71.6,29.94,SE,142,0.0,0.0,90,0.00,,,0.00,WeatherCatV1.02B3,2013-10-06 05:26:00,
2013-10-06 00:31:00,74.6,71.5,29.93,SE,142,0.0,0.0,90,0.00,,,0.00,WeatherCatV1.02B3,2013-10-06 05:31:00,
2013-10-06 00:36:00,74.5,71.7,29.93,SE,142,0.0,1.0,91,0.00,,,0.00,WeatherCatV1.02B3,2013-10-06 05:36:00,
2013-10-06 00:41:00,74.4,71.6,29.93,SE,142,0.0,0.0,91,0.00,,,0.00,WeatherCatV1.02B3,2013-10-06 05:41:00,
2013-10-06 00:46:00,74.4,71.6,29.93,SE,142,0.0,0.0,91,0.00,,,0.00,WeatherCatV1.02B3,2013-10-06 05:46:00,
2013-10-06 00:51:00,74.3,71.5,29.92,SE,142,1.0,2.0,91,0.00,,,0.00,WeatherCatV1.02B3,2013-10-06 05:51:00,
2013-10-06 00:56:00,74.2,71.4,29.92,SE,134,0.0,7.0,91,0.00,,,0.00,WeatherCatV1.02B3,2013-10-06 05:56:00,
2013-10-06 01:01:00,74.0,71.2,29.92,SE,142,0.0,0.0,91,0.00,,,0.00,WeatherCatV1.02B3,2013-10-06 06:01:00,
2013-10-06 01:06:00,73.9,71.4,29.92,SE,143,0.0,0.0,92,0.00,,,0.00,WeatherCatV1.02B3,2013-10-06 06:06:00,
2013-10-06 01:11:00,73.8,71.3,29.92,SE,143,0.0,0.0,92,0.00,,,0.00,WeatherCatV1.02B3,2013-10-06 06:11:00,
2013-10-06 01:16:00,73.8,71.3,29.93,SE,143,0.0,1.0,92,0.00,,,0.00,WeatherCatV1.02B3,2013-10-06 06:16:00,
2013-10-06 01:21:00,73.8,71.3,29.93,SE,146,0.0,1.0,92,0.00,,,0.00,WeatherCatV1.02B3,2013-10-06 06:21:00,
2013-10-06 01:26:00,73.8,71.3,29.93,SE,146,0.0,0.0,92,0.00,,,0.00,WeatherCatV1.02B3,2013-10-06 06:26:00,
2013-10-06 01:31:00,73.7,71.2,29.93,SSE,148,0.0,2.0,92,0.00,,,0.00,WeatherCatV1.02B3,2013-10-06 06:31:00,
2013-10-06 01:36:00,73.7,71.2,29.93,SSE,148,0.0,1.0,92,0.00,,,0.00,WeatherCatV1.02B3,2013-10-06 06:36:00,
2013-10-06 01:41:00,73.7,71.2,29.93,SSE,167,0.0,1.0,92,0.00,,,0.00,WeatherCatV1.02B3,2013-10-06 06:41:00,
2013-10-06 01:46:00,73.6,71.1,29.92,SE,130,0.0,2.0,92,0.00,,,0.00,WeatherCatV1.02B3,2013-10-06 06:46:00,
2013-10-06 01:51:00,73.6,71.1,29.93,SE,140,1.0,1.0,92,0.00,,,0.00,WeatherCatV1.02B3,2013-10-06 06:51:00,
2013-10-06 01:56:00,73.5,71.0,29.92,SE,140,0.0,0.0,92,0.00,,,0.00,WeatherCatV1.02B3,2013-10-06 06:56:00,
2013-10-06 02:01:00,73.5,71.0,29.92,SE,140,0.0,1.0,92,0.00,,,0.00,WeatherCatV1.02B3,2013-10-06 07:01:00,
2013-10-06 02:06:00,73.4,70.9,29.92,SE,140,0.0,1.0,92,0.00,,,0.00,WeatherCatV1.02B3,2013-10-06 07:06:00,
2013-10-06 02:11:00,73.4,70.9,29.92,SE,140,0.0,1.0,92,0.00,,,0.00,WeatherCatV1.02B3,2013-10-06 07:11:00,
2013-10-06 02:16:00,73.3,70.8,29.92,SE,140,0.0,0.0,92,0.00,,,0.00,WeatherCatV1.02B3,2013-10-06 07:16:00,
2013-10-06 02:21:00,73.2,70.7,29.91,SE,140,0.0,0.0,92,0.00,,,0.00,WeatherCatV1.02B3,2013-10-06 07:21:00,
2013-10-06 02:26:00,73.2,71.0,29.91,SE,140,0.0,1.0,93,0.00,,,0.00,WeatherCatV1.02B3,2013-10-06 07:26:00,
2013-10-06 02:31:00,73.1,70.9,29.91,SE,136,0.0,0.0,93,0.00,,,0.00,WeatherCatV1.02B3,2013-10-06 07:31:00,
2013-10-06 02:36:00,73.1,70.9,29.90,SE,136,0.0,1.0,93,0.00,,,0.00,WeatherCatV1.02B3,2013-10-06 07:36:00,
2013-10-06 02:41:00,73.0,70.8,29.90,SE,136,0.0,0.0,93,0.00,,,0.00,WeatherCatV1.02B3,2013-10-06 07:41:00,
2013-10-06 02:46:00,72.9,70.8,29.90,SE,136,0.0,0.0,93,0.00,,,0.00,WeatherCatV1.02B3,2013-10-06 07:46:00,
2013-10-06 02:51:00,72.9,70.8,29.90,SE,136,0.0,0.0,93,0.00,,,0.00,WeatherCatV1.02B3,2013-10-06 07:51:00,
2013-10-06 02:56:00,72.8,70.7,29.90,SE,136,0.0,0.0,93,0.00,,,0.00,WeatherCatV1.02B3,2013-10-06 07:56:00,
2013-10-06 03:01:00,72.8,70.7,29.90,SE,136,0.0,0.0,93,0.00,,,0.00,WeatherCatV1.02B3,2013-10-06 08:01:00,
2013-10-06 03:06:00,72.7,70.6,29.90,SE,136,0.0,0.0,93,0.00,,,0.00,WeatherCatV1.02B3,2013-10-06 08:06:00,
2013-10-06 03:11:00,72.7,70.6,29.90,SE,136,0.0,0.0,93,0.00,,,0.00,WeatherCatV1.02B3,2013-10-06 08:11:00,
2013-10-06 03:16:00,72.6,70.5,29.91,SE,136,0.0,0.0,93,0.00,,,0.00,WeatherCatV1.02B3,2013-10-06 08:16:00,
2013-10-06 03:21:00,72.5,70.4,29.91,SE,136,0.0,0.0,93,0.00,,,0.00,WeatherCatV1.02B3,2013-10-06 08:21:00,
2013-10-06 03:26:00,72.4,70.3,29.90,SE,136,0.0,0.0,93,0.00,,,0.00,WeatherCatV1.02B3,2013-10-06 08:26:00,
2013-10-06 03:31:00,72.4,70.3,29.90,SE,136,0.0,0.0,93,0.00,,,0.00,WeatherCatV1.02B3,2013-10-06 08:31:00,
2013-10-06 03:36:00,72.3,70.2,29.90,SE,136,0.0,0.0,93,0.00,,,0.00,WeatherCatV1.02B3,2013-10-06 08:36:00,
2013-10-06 03:41:00,72.2,70.4,29.91,SE,136,0.0,0.0,94,0.00,,,0.00,WeatherCatV1.02B3,2013-10-06 08:41:00,
2013-10-06 03:46:00,72.2,70.4,29.91,SE,136,0.0,0.0,94,0.00,,,0.00,WeatherCatV1.02B3,2013-10-06 08:46:00,
2013-10-06 03:51:00,72.1,70.0,29.91,SE,136,0.0,0.0,93,0.00,,,0.00,WeatherCatV1.02B3,2013-10-06 08:51:00,
2013-10-06 03:56:00,72.0,69.9,29.91,SE,136,0.0,0.0,93,0.00,,,0.00,WeatherCatV1.02B3,2013-10-06 08:56:00,
2013-10-06 04:01:00,71.9,69.8,29.91,SE,136,0.0,0.0,93,0.00,,,0.00,WeatherCatV1.02B3,2013-10-06 09:01:00,
2013-10-06 04:06:00,71.8,69.7,29.91,SE,136,0.0,0.0,93,0.00,,,0.00,WeatherCatV1.02B3,2013-10-06 09:06:00,
2013-10-06 04:09:00,71.7,69.9,29.91,SE,136,0.0,0.0,94,0.00,,,0.00,WeatherCatV1.02B3,2013-10-06 09:09:00,
2013-10-06 04:14:00,71.7,69.9,29.91,SE,136,0.0,0.0,94,0.00,,,0.00,WeatherCatV1.02B3,2013-10-06 09:14:00,
2013-10-06 04:19:00,71.6,69.8,29.90,SE,136,0.0,0.0,94,0.00,,,0.00,WeatherCatV1.02B3,2013-10-06 09:19:00,
2013-10-06 04:24:00,71.5,69.7,29.91,SE,136,0.0,0.0,94,0.00,,,0.00,WeatherCatV1.02B3,2013-10-06 09:24:00,
2013-10-06 04:29:00,71.5,69.7,29.90,SE,136,0.0,0.0,94,0.00,,,0.00,WeatherCatV1.02B3,2013-10-06 09:29:00,
2013-10-06 04:34:00,71.4,69.6,29.90,SE,136,0.0,0.0,94,0.00,,,0.00,WeatherCatV1.02B3,2013-10-06 09:34:00,
2013-10-06 04:39:00,71.3,69.5,29.91,SE,136,0.0,0.0,94,0.00,,,0.00,WeatherCatV1.02B3,2013-10-06 09:39:00,
2013-10-06 04:44:00,71.4,69.6,29.91,SE,136,0.0,0.0,94,0.00,,,0.00,WeatherCatV1.02B3,2013-10-06 09:44:00,
2013-10-06 04:49:00,71.5,69.7,29.91,SE,136,0.0,0.0,94,0.00,,,0.00,WeatherCatV1.02B3,2013-10-06 09:49:00,
2013-10-06 04:54:00,71.6,69.8,29.91,SE,136,0.0,0.0,94,0.00,,,0.00,WeatherCatV1.02B3,2013-10-06 09:54:00,
2013-10-06 04:59:00,71.7,69.9,29.91,SE,136,0.0,0.0,94,0.00,,,0.00,WeatherCatV1.02B3,2013-10-06 09:59:00,
2013-10-06 05:04:00,71.8,70.3,29.91,SE,136,0.0,0.0,95,0.00,,,0.00,WeatherCatV1.02B3,2013-10-06 10:04:00,
2013-10-06 05:09:00,71.8,70.3,29.91,SE,136,0.0,0.0,95,0.00,,,0.00,WeatherCatV1.02B3,2013-10-06 10:09:00,
2013-10-06 05:14:00,71.8,70.3,29.91,SE,136,0.0,0.0,95,0.00,,,0.00,WeatherCatV1.02B3,2013-10-06 10:14:00,
2013-10-06 05:19:00,71.8,70.3,29.90,SE,136,0.0,0.0,95,0.00,,,0.00,WeatherCatV1.02B3,2013-10-06 10:19:00,
2013-10-06 05:24:00,71.7,70.2,29.90,SE,136,0.0,0.0,95,0.00,,,0.00,WeatherCatV1.02B3,2013-10-06 10:24:00,
2013-10-06 05:29:00,71.6,70.1,29.91,SE,136,0.0,0.0,95,0.00,,,0.00,WeatherCatV1.02B3,2013-10-06 10:29:00,
2013-10-06 05:34:00,71.6,70.1,29.90,SE,136,0.0,0.0,95,0.00,,,0.00,WeatherCatV1.02B3,2013-10-06 10:34:00,
2013-10-06 05:39:00,71.6,70.1,29.91,SE,136,0.0,0.0,95,0.00,,,0.00,WeatherCatV1.02B3,2013-10-06 10:39:00,
2013-10-06 05:44:00,71.6,70.1,29.91,SE,136,0.0,0.0,95,0.00,,,0.00,WeatherCatV1.02B3,2013-10-06 10:44:00,
2013-10-06 05:49:00,71.6,70.1,29.91,SE,136,0.0,0.0,95,0.00,,,0.00,WeatherCatV1.02B3,2013-10-06 10:49:00,
2013-10-06 05:54:00,71.6,70.1,29.91,SE,136,0.0,0.0,95,0.00,,,0.00,WeatherCatV1.02B3,2013-10-06 10:54:00,
2013-10-06 05:59:00,71.6,70.1,29.91,SE,136,0.0,0.0,95,0.00,,,0.00,WeatherCatV1.02B3,2013-10-06 10:59:00,
2013-10-06 06:04:00,71.7,70.2,29.91,SE,136,0.0,0.0,95,0.00,,,0.00,WeatherCatV1.02B3,2013-10-06 11:04:00,
2013-10-06 06:09:00,71.7,70.2,29.91,SE,136,0.0,0.0,95,0.00,,,0.00,WeatherCatV1.02B3,2013-10-06 11:09:00,
2013-10-06 06:14:00,71.8,70.3,29.91,SE,136,0.0,0.0,95,0.00,,,0.00,WeatherCatV1.02B3,2013-10-06 11:14:00,
2013-10-06 06:19:00,71.8,70.3,29.91,SE,136,0.0,0.0,95,0.00,,,0.00,WeatherCatV1.02B3,2013-10-06 11:19:00,
2013-10-06 06:24:00,71.8,70.3,29.91,SE,136,0.0,0.0,95,0.00,,,0.00,WeatherCatV1.02B3,2013-10-06 11:24:00,
2013-10-06 06:29:00,71.8,70.3,29.91,SE,136,0.0,0.0,95,0.00,,,0.00,WeatherCatV1.02B3,2013-10-06 11:29:00,
2013-10-06 06:34:00,71.8,70.3,29.91,SE,136,0.0,0.0,95,0.00,,,0.00,WeatherCatV1.02B3,2013-10-06 11:34:00,
2013-10-06 06:39:00,71.9,70.4,29.92,SE,136,0.0,0.0,95,0.00,,,0.00,WeatherCatV1.02B3,2013-10-06 11:39:00,
2013-10-06 06:44:00,71.9,70.4,29.92,SE,136,0.0,0.0,95,0.00,,,0.00,WeatherCatV1.02B3,2013-10-06 11:44:00,
2013-10-06 06:49:00,71.9,70.4,29.92,SE,136,0.0,0.0,95,0.00,,,0.00,WeatherCatV1.02B3,2013-10-06 11:49:00,
2013-10-06 06:54:00,72.0,70.5,29.92,SE,136,0.0,0.0,95,0.00,,,0.00,WeatherCatV1.02B3,2013-10-06 11:54:00,
2013-10-06 06:59:00,72.1,70.6,29.92,SE,136,0.0,0.0,95,0.00,,,0.01,WeatherCatV1.02B3,2013-10-06 11:59:00,
2013-10-06 07:04:00,72.2,70.7,29.92,SE,136,0.0,0.0,95,0.00,,,0.01,WeatherCatV1.02B3,2013-10-06 12:04:00,
2013-10-06 07:09:00,72.3,70.8,29.92,SE,136,0.0,0.0,95,0.00,,,0.01,WeatherCatV1.02B3,2013-10-06 12:09:00,
2013-10-06 07:14:00,72.3,70.8,29.92,SE,136,0.0,0.0,95,0.00,,,0.01,WeatherCatV1.02B3,2013-10-06 12:14:00,
2013-10-06 07:19:00,72.4,70.9,29.92,SE,136,0.0,0.0,95,0.00,,,0.01,WeatherCatV1.02B3,2013-10-06 12:19:00,
2013-10-06 07:24:00,72.4,70.9,29.92,SE,136,0.0,0.0,95,0.00,,,0.01,WeatherCatV1.02B3,2013-10-06 12:24:00,
2013-10-06 07:29:00,72.5,71.0,29.92,SE,136,0.0,0.0,95,0.00,,,0.02,WeatherCatV1.02B3,2013-10-06 12:29:00,
2013-10-06 07:34:00,72.5,71.0,29.91,SE,136,0.0,0.0,95,0.00,,,0.02,WeatherCatV1.02B3,2013-10-06 12:34:00,
2013-10-06 07:39:00,72.7,71.2,29.91,SE,136,0.0,0.0,95,0.00,,,0.02,WeatherCatV1.02B3,2013-10-06 12:39:00,
2013-10-06 07:44:00,72.7,71.2,29.91,SE,136,0.0,0.0,95,0.00,,,0.02,WeatherCatV1.02B3,2013-10-06 12:44:00,
2013-10-06 07:49:00,72.7,71.2,29.90,East,82,0.0,1.0,95,0.00,,,0.02,WeatherCatV1.02B3,2013-10-06 12:49:00,
2013-10-06 07:54:00,72.9,71.4,29.89,NE,54,2.0,4.0,95,0.00,,,0.02,WeatherCatV1.02B3,2013-10-06 12:54:00,
2013-10-06 07:59:00,72.9,71.4,29.89,NNE,25,0.0,0.0,95,0.00,,,0.02,WeatherCatV1.02B3,2013-10-06 12:59:00,
2013-10-06 08:04:00,72.9,71.4,29.88,NNE,32,2.0,2.0,95,0.00,,,0.02,WeatherCatV1.02B3,2013-10-06 13:04:00,
2013-10-06 08:09:00,72.8,71.3,29.90,NNE,32,0.0,0.0,95,0.00,,,0.02,WeatherCatV1.02B3,2013-10-06 13:09:00,
2013-10-06 08:14:00,72.7,71.2,29.91,NNE,32,0.0,0.0,95,0.00,,,0.02,WeatherCatV1.02B3,2013-10-06 13:14:00,
2013-10-06 08:19:00,72.7,71.2,29.91,NNE,32,0.0,0.0,95,0.00,,,0.02,WeatherCatV1.02B3,2013-10-06 13:19:00,
2013-10-06 08:24:00,72.7,71.2,29.91,NNE,32,0.0,0.0,95,0.00,,,0.02,WeatherCatV1.02B3,2013-10-06 13:24:00,
2013-10-06 08:29:00,72.8,71.3,29.91,NNE,32,0.0,0.0,95,0.00,,,0.02,WeatherCatV1.02B3,2013-10-06 13:29:00,
2013-10-06 08:34:00,72.8,71.3,29.92,NNE,32,0.0,0.0,95,0.00,,,0.02,WeatherCatV1.02B3,2013-10-06 13:34:00,
2013-10-06 08:39:00,72.8,71.6,29.91,NNE,32,0.0,0.0,96,0.22,,,0.04,WeatherCatV1.02B3,2013-10-06 13:39:00,
2013-10-06 08:44:00,72.8,71.6,29.92,NNE,32,0.0,0.0,96,0.35,,,0.06,WeatherCatV1.02B3,2013-10-06 13:44:00,
2013-10-06 08:49:00,72.8,71.6,29.91,NE,38,0.0,0.0,96,0.17,,,0.07,WeatherCatV1.02B3,2013-10-06 13:49:00,
2013-10-06 08:54:00,72.8,71.6,29.91,ENE,61,0.0,2.0,96,0.07,,,0.07,WeatherCatV1.02B3,2013-10-06 13:54:00,
2013-10-06 08:59:00,72.8,71.6,29.91,ENE,61,0.0,0.0,96,0.07,,,0.08,WeatherCatV1.02B3,2013-10-06 13:59:00,
2013-10-06 09:04:00,72.6,71.1,29.90,ENE,62,0.0,0.0,95,0.06,,,0.08,WeatherCatV1.02B3,2013-10-06 14:04:00,
2013-10-06 09:09:00,72.6,71.4,29.91,ENE,62,0.0,0.0,96,0.04,,,0.08,WeatherCatV1.02B3,2013-10-06 14:09:00,
2013-10-06 09:14:00,72.5,71.3,29.92,ENE,62,0.0,0.0,96,0.00,,,0.08,WeatherCatV1.02B3,2013-10-06 14:14:00,
2013-10-06 09:19:00,72.5,71.3,29.92,ENE,62,0.0,0.0,96,0.00,,,0.08,WeatherCatV1.02B3,2013-10-06 14:19:00,
2013-10-06 09:24:00,72.6,71.4,29.92,ENE,62,0.0,0.0,96,0.00,,,0.08,WeatherCatV1.02B3,2013-10-06 14:24:00,
2013-10-06 09:29:00,72.7,71.5,29.92,ENE,62,0.0,0.0,96,0.00,,,0.08,WeatherCatV1.02B3,2013-10-06 14:29:00,
2013-10-06 09:34:00,72.8,71.6,29.92,NNW,331,2.0,2.0,96,0.00,,,0.08,WeatherCatV1.02B3,2013-10-06 14:34:00,
2013-10-06 09:39:00,72.2,70.7,29.91,North,355,0.0,2.0,95,0.00,,,0.08,WeatherCatV1.02B3,2013-10-06 14:39:00,
2013-10-06 09:44:00,71.9,70.4,29.91,NW,305,2.0,2.0,95,0.00,,,0.08,WeatherCatV1.02B3,2013-10-06 14:44:00,
2013-10-06 09:49:00,69.7,67.6,29.92,NNW,330,0.0,7.0,93,0.00,,,0.08,WeatherCatV1.02B3,2013-10-06 14:49:00,
2013-10-06 09:54:00,67.6,65.8,29.92,WNW,284,0.0,4.0,94,0.00,,,0.08,WeatherCatV1.02B3,2013-10-06 14:54:00,
2013-10-06 09:59:00,66.3,64.5,29.92,WSW,241,1.0,6.0,94,0.00,,,0.08,WeatherCatV1.02B3,2013-10-06 14:59:00,
2013-10-06 10:04:00,65.4,63.9,29.92,SW,227,0.0,5.0,95,0.00,,,0.08,WeatherCatV1.02B3,2013-10-06 15:04:00,
2013-10-06 10:09:00,64.9,63.4,29.93,WNW,292,1.0,5.0,95,0.00,,,0.08,WeatherCatV1.02B3,2013-10-06 15:09:00,
2013-10-06 10:14:00,64.7,63.2,29.93,NE,34,3.0,6.0,95,0.00,,,0.08,WeatherCatV1.02B3,2013-10-06 15:14:00,
2013-10-06 10:19:00,64.0,62.5,29.94,West,279,1.0,2.0,95,0.00,,,0.08,WeatherCatV1.02B3,2013-10-06 15:19:00,
2013-10-06 10:24:00,63.6,62.1,29.94,NNW,339,1.0,13.0,95,0.00,,,0.08,WeatherCatV1.02B3,2013-10-06 15:24:00,
2013-10-06 10:29:00,63.4,61.9,29.94,NW,325,0.0,3.0,95,0.00,,,0.08,WeatherCatV1.02B3,2013-10-06 15:29:00,
2013-10-06 10:34:00,63.2,61.7,29.94,NW,319,1.0,5.0,95,0.00,,,0.08,WeatherCatV1.02B3,2013-10-06 15:34:00,
2013-10-06 10:39:00,62.8,61.3,29.94,SW,230,0.0,3.0,95,0.00,,,0.08,WeatherCatV1.02B3,2013-10-06 15:39:00,
2013-10-06 10:44:00,62.5,61.0,29.94,NNW,327,0.0,1.0,95,0.00,,,0.08,WeatherCatV1.02B3,2013-10-06 15:44:00,
2013-10-06 10:49:00,62.5,61.0,29.93,West,273,0.0,3.0,95,0.00,,,0.08,WeatherCatV1.02B3,2013-10-06 15:49:00,
2013-10-06 10:54:00,62.5,61.0,29.93,NNW,330,0.0,5.0,95,0.00,,,0.08,WeatherCatV1.02B3,2013-10-06 15:54:00,
2013-10-06 10:59:00,62.4,60.6,29.93,NNW,345,0.0,4.0,94,0.00,,,0.08,WeatherCatV1.02B3,2013-10-06 15:59:00,
2013-10-06 11:04:00,62.3,60.5,29.94,NNE,19,2.0,12.0,94,0.00,,,0.08,WeatherCatV1.02B3,2013-10-06 16:04:00,
2013-10-06 11:09:00,62.4,60.6,29.94,North,351,6.0,6.0,94,0.00,,,0.08,WeatherCatV1.02B3,2013-10-06 16:09:00,
2013-10-06 11:14:00,62.4,60.6,29.94,NNE,17,5.0,7.0,94,0.00,,,0.08,WeatherCatV1.02B3,2013-10-06 16:14:00,
2013-10-06 11:19:00,62.6,60.8,29.94,NW,308,0.0,4.0,94,0.00,,,0.08,WeatherCatV1.02B3,2013-10-06 16:19:00,
2013-10-06 11:24:00,62.9,60.8,29.94,NW,323,0.0,3.0,93,0.00,,,0.08,WeatherCatV1.02B3,2013-10-06 16:24:00,
2013-10-06 11:29:00,63.2,61.1,29.95,NW,313,0.0,5.0,93,0.00,,,0.08,WeatherCatV1.02B3,2013-10-06 16:29:00,
2013-10-06 11:34:00,63.3,60.6,29.95,NW,322,0.0,2.0,91,0.00,,,0.08,WeatherCatV1.02B3,2013-10-06 16:34:00,
2013-10-06 11:39:00,63.4,60.7,29.95,WNW,288,0.0,6.0,91,0.00,,,0.08,WeatherCatV1.02B3,2013-10-06 16:39:00,
2013-10-06 11:44:00,63.5,60.5,29.95,NW,315,0.0,1.0,90,0.00,,,0.08,WeatherCatV1.02B3,2013-10-06 16:44:00,
2013-10-06 11:49:00,63.7,60.7,29.95,West,277,0.0,1.0,90,0.00,,,0.08,WeatherCatV1.02B3,2013-10-06 16:49:00,
2013-10-06 11:54:00,63.8,60.5,29.95,West,273,0.0,2.0,89,0.00,,,0.08,WeatherCatV1.02B3,2013-10-06 16:54:00,
2013-10-06 11:59:00,63.8,60.2,29.95,NNW,333,2.0,5.0,88,0.00,,,0.08,WeatherCatV1.02B3,2013-10-06 16:59:00,
2013-10-06 12:04:00,63.9,60.3,29.95,WNW,286,0.0,1.0,88,0.00,,,0.08,WeatherCatV1.02B3,2013-10-06 17:04:00,
2013-10-06 12:09:00,64.1,60.1,29.95,NW,307,0.0,3.0,87,0.00,,,0.08,WeatherCatV1.02B3,2013-10-06 17:09:00,
2013-10-06 12:14:00,64.4,60.4,29.96,WNW,300,0.0,4.0,87,0.00,,,0.08,WeatherCatV1.02B3,2013-10-06 17:14:00,
2013-10-06 12:19:00,64.5,59.9,29.95,WSW,246,1.0,7.0,85,0.00,,,0.08,WeatherCatV1.02B3,2013-10-06 17:19:00,
2013-10-06 12:24:00,64.5,59.9,29.95,NNW,327,0.0,2.0,85,0.00,,,0.08,WeatherCatV1.02B3,2013-10-06 17:24:00,
2013-10-06 12:29:00,64.7,60.4,29.95,North,0,0.0,6.0,86,0.00,,,0.08,WeatherCatV1.02B3,2013-10-06 17:29:00,
2013-10-06 12:34:00,64.9,60.6,29.95,NW,323,1.0,5.0,86,0.00,,,0.08,WeatherCatV1.02B3,2013-10-06 17:34:00,
2013-10-06 12:39:00,65.0,60.0,29.95,NNW,338,2.0,8.0,84,0.00,,,0.08,WeatherCatV1.02B3,2013-10-06 17:39:00,
2013-10-06 12:44:00,65.2,60.2,29.95,West,264,0.0,3.0,84,0.00,,,0.08,WeatherCatV1.02B3,2013-10-06 17:44:00,
2013-10-06 12:49:00,65.4,60.4,29.95,WSW,257,0.0,9.0,84,0.00,,,0.08,WeatherCatV1.02B3,2013-10-06 17:49:00,
2013-10-06 12:54:00,65.5,61.2,29.95,NNW,327,0.0,2.0,86,0.00,,,0.08,WeatherCatV1.02B3,2013-10-06 17:54:00,
2013-10-06 12:59:00,65.6,61.3,29.95,WNW,294,2.0,4.0,86,0.00,,,0.08,WeatherCatV1.02B3,2013-10-06 17:59:00,
2013-10-06 13:04:00,65.7,61.1,29.95,West,270,0.0,2.0,85,0.00,,,0.08,WeatherCatV1.02B3,2013-10-06 18:04:00,
2013-10-06 13:09:00,65.7,61.1,29.94,NW,314,0.0,5.0,85,0.00,,,0.08,WeatherCatV1.02B3,2013-10-06 18:09:00,
2013-10-06 13:14:00,65.7,60.7,29.94,West,274,0.0,5.0,84,0.00,,,0.08,WeatherCatV1.02B3,2013-10-06 18:14:00,
2013-10-06 13:19:00,65.8,61.2,29.94,NW,306,0.0,3.0,85,0.00,,,0.08,WeatherCatV1.02B3,2013-10-06 18:19:00,
2013-10-06 13:24:00,65.7,61.1,29.94,WSW,239,0.0,2.0,85,0.00,,,0.08,WeatherCatV1.02B3,2013-10-06 18:24:00,
2013-10-06 13:29:00,65.9,60.9,29.94,WNW,295,1.0,1.0,84,0.00,,,0.08,WeatherCatV1.02B3,2013-10-06 18:29:00,
2013-10-06 13:34:00,66.1,61.1,29.93,WNW,294,0.0,1.0,84,0.00,,,0.08,WeatherCatV1.02B3,2013-10-06 18:34:00,
2013-10-06 13:39:00,66.4,60.7,29.93,West,263,1.0,5.0,82,0.00,,,0.08,WeatherCatV1.02B3,2013-10-06 18:39:00,
2013-10-06 13:44:00,66.4,60.7,29.94,NNW,345,0.0,3.0,82,0.00,,,0.08,WeatherCatV1.02B3,2013-10-06 18:44:00,
2013-10-06 13:49:00,66.4,60.0,29.94,SW,224,0.0,3.0,80,0.00,,,0.08,WeatherCatV1.02B3,2013-10-06 18:49:00,
2013-10-06 13:54:00,66.5,60.1,29.94,North,5,0.0,6.0,80,0.00,,,0.08,WeatherCatV1.02B3,2013-10-06 18:54:00,
2013-10-06 13:59:00,66.6,60.2,29.94,WSW,237,0.0,3.0,80,0.00,,,0.08,WeatherCatV1.02B3,2013-10-06 18:59:00,
2013-10-06 14:04:00,66.9,60.5,29.93,West,259,1.0,5.0,80,0.00,,,0.08,WeatherCatV1.02B3,2013-10-06 19:04:00,
2013-10-06 14:09:00,67.1,60.0,29.93,WSW,252,1.0,4.0,78,0.00,,,0.08,WeatherCatV1.02B3,2013-10-06 19:09:00,
2013-10-06 14:14:00,67.2,60.5,29.93,NW,311,0.0,5.0,79,0.00,,,0.08,WeatherCatV1.02B3,2013-10-06 19:14:00,
2013-10-06 14:19:00,67.5,60.0,29.93,West,272,0.0,2.0,77,0.00,,,0.08,WeatherCatV1.02B3,2013-10-06 19:19:00,
2013-10-06 14:24:00,67.6,60.1,29.93,SW,235,3.0,5.0,77,0.00,,,0.08,WeatherCatV1.02B3,2013-10-06 19:24:00,
2013-10-06 14:29:00,67.8,60.3,29.92,WNW,298,0.0,3.0,77,0.00,,,0.08,WeatherCatV1.02B3,2013-10-06 19:29:00,
2013-10-06 14:34:00,68.0,60.1,29.92,NW,315,2.0,4.0,76,0.00,,,0.08,WeatherCatV1.02B3,2013-10-06 19:34:00,
2013-10-06 14:39:00,68.0,59.8,29.93,West,272,0.0,4.0,75,0.00,,,0.08,WeatherCatV1.02B3,2013-10-06 19:39:00,
2013-10-06 14:44:00,68.0,59.4,29.92,WNW,283,0.0,5.0,74,0.00,,,0.08,WeatherCatV1.02B3,2013-10-06 19:44:00,
2013-10-06 14:49:00,68.1,59.9,29.92,WNW,295,2.0,4.0,75,0.00,,,0.08,WeatherCatV1.02B3,2013-10-06 19:49:00,
2013-10-06 14:54:00,68.4,59.8,29.92,West,277,0.0,2.0,74,0.00,,,0.08,WeatherCatV1.02B3,2013-10-06 19:54:00,
2013-10-06 14:59:00,68.7,60.1,29.92,West,260,0.0,5.0,74,0.00,,,0.08,WeatherCatV1.02B3,2013-10-06 19:59:00,
2013-10-06 15:04:00,68.9,59.5,29.92,NNE,28,1.0,6.0,72,0.00,,,0.08,WeatherCatV1.02B3,2013-10-06 20:04:00,
2013-10-06 15:09:00,68.9,59.9,29.92,North,355,3.0,4.0,73,0.00,,,0.08,WeatherCatV1.02B3,2013-10-06 20:09:00,
2013-10-06 15:14:00,69.0,60.0,29.92,WNW,302,0.0,6.0,73,0.00,,,0.08,WeatherCatV1.02B3,2013-10-06 20:14:00,
2013-10-06 15:19:00,69.2,60.2,29.92,NNW,336,0.0,2.0,73,0.00,,,0.08,WeatherCatV1.02B3,2013-10-06 20:19:00,
2013-10-06 15:24:00,69.4,59.6,29.91,West,276,0.0,3.0,71,0.00,,,0.08,WeatherCatV1.02B3,2013-10-06 20:24:00,
2013-10-06 15:29:00,69.6,60.9,29.91,NW,311,4.0,5.0,74,0.00,,,0.08,WeatherCatV1.02B3,2013-10-06 20:29:00,
2013-10-06 15:34:00,69.7,59.5,29.92,WNW,295,0.0,1.0,70,0.00,,,0.08,WeatherCatV1.02B3,2013-10-06 20:34:00,
2013-10-06 15:39:00,69.7,59.5,29.91,West,281,0.0,5.0,70,0.00,,,0.08,WeatherCatV1.02B3,2013-10-06 20:39:00,
2013-10-06 15:44:00,69.7,58.7,29.91,NNE,31,1.0,5.0,68,0.00,,,0.08,WeatherCatV1.02B3,2013-10-06 20:44:00,
2013-10-06 15:49:00,69.7,58.7,29.91,West,267,2.0,3.0,68,0.00,,,0.08,WeatherCatV1.02B3,2013-10-06 20:49:00,
2013-10-06 15:54:00,69.6,58.6,29.91,West,280,1.0,1.0,68,0.00,,,0.08,WeatherCatV1.02B3,2013-10-06 20:54:00,
2013-10-06 15:59:00,69.5,58.0,29.91,North,5,0.0,2.0,67,0.00,,,0.08,WeatherCatV1.02B3,2013-10-06 20:59:00,
2013-10-06 16:04:00,69.5,58.0,29.91,SW,233,1.0,5.0,67,0.00,,,0.08,WeatherCatV1.02B3,2013-10-06 21:04:00,
2013-10-06 16:09:00,69.4,58.0,29.90,WNW,288,0.0,0.0,67,0.00,,,0.08,WeatherCatV1.02B3,2013-10-06 21:09:00,
2013-10-06 16:14:00,69.5,58.0,29.91,WSW,250,0.0,0.0,67,0.00,,,0.08,WeatherCatV1.02B3,2013-10-06 21:14:00,
2013-10-06 16:19:00,69.9,58.8,29.90,NW,306,0.0,4.0,68,0.00,,,0.08,WeatherCatV1.02B3,2013-10-06 21:19:00,
2013-10-06 16:24:00,70.1,56.9,29.91,WNW,288,0.0,2.0,63,0.00,,,0.08,WeatherCatV1.02B3,2013-10-06 21:24:00,
2013-10-06 16:29:00,70.2,56.6,29.91,WNW,303,0.0,3.0,62,0.00,,,0.08,WeatherCatV1.02B3,2013-10-06 21:29:00,
2013-10-06 16:34:00,69.9,55.4,29.91,WNW,298,0.0,2.0,60,0.00,,,0.08,WeatherCatV1.02B3,2013-10-06 21:34:00,
2013-10-06 16:39:00,69.7,55.2,29.91,West,262,4.0,4.0,60,0.00,,,0.08,WeatherCatV1.02B3,2013-10-06 21:39:00,
2013-10-06 16:44:00,69.6,55.1,29.91,SW,231,2.0,7.0,60,0.00,,,0.08,WeatherCatV1.02B3,2013-10-06 21:44:00,
2013-10-06 16:49:00,69.7,56.1,29.92,West,271,1.0,1.0,62,0.00,,,0.08,WeatherCatV1.02B3,2013-10-06 21:49:00,
2013-10-06 16:54:00,69.7,56.1,29.92,NNE,19,0.0,4.0,62,0.00,,,0.08,WeatherCatV1.02B3,2013-10-06 21:54:00,
2013-10-06 16:59:00,69.7,56.1,29.92,WSW,257,0.0,2.0,62,0.00,,,0.08,WeatherCatV1.02B3,2013-10-06 21:59:00,
2013-10-06 17:04:00,69.7,56.5,29.92,West,267,1.0,3.0,63,0.00,,,0.08,WeatherCatV1.02B3,2013-10-06 22:04:00,
2013-10-06 17:09:00,69.6,57.3,29.91,WNW,291,0.0,0.0,65,0.00,,,0.08,WeatherCatV1.02B3,2013-10-06 22:09:00,
2013-10-06 17:14:00,69.4,56.7,29.91,WNW,282,1.0,4.0,64,0.00,,,0.08,WeatherCatV1.02B3,2013-10-06 22:14:00,
2013-10-06 17:19:00,69.3,56.6,29.91,West,281,0.0,2.0,64,0.00,,,0.08,WeatherCatV1.02B3,2013-10-06 22:19:00,
2013-10-06 17:24:00,69.2,55.6,29.91,NE,46,0.0,2.0,62,0.00,,,0.08,WeatherCatV1.02B3,2013-10-06 22:24:00,
2013-10-06 17:29:00,69.3,55.7,29.91,NNW,327,0.0,1.0,62,0.00,,,0.08,WeatherCatV1.02B3,2013-10-06 22:29:00,
2013-10-06 17:34:00,69.2,55.6,29.91,NW,324,3.0,6.0,62,0.00,,,0.08,WeatherCatV1.02B3,2013-10-06 22:34:00,
2013-10-06 17:39:00,68.9,54.9,29.91,NW,326,0.0,3.0,61,0.00,,,0.08,WeatherCatV1.02B3,2013-10-06 22:39:00,
2013-10-06 17:44:00,68.8,54.8,29.92,WNW,294,0.0,4.0,61,0.00,,,0.08,WeatherCatV1.02B3,2013-10-06 22:44:00,
2013-10-06 17:49:00,68.8,55.2,29.92,North,5,0.0,3.0,62,0.00,,,0.08,WeatherCatV1.02B3,2013-10-06 22:49:00,
2013-10-06 17:54:00,68.8,55.7,29.92,SW,235,0.0,0.0,63,0.00,,,0.08,WeatherCatV1.02B3,2013-10-06 22:54:00,
2013-10-06 17:59:00,68.7,55.6,29.92,West,267,0.0,7.0,63,0.00,,,0.08,WeatherCatV1.02B3,2013-10-06 22:59:00,
2013-10-06 18:04:00,68.6,56.8,29.91,North,0,0.0,4.0,66,0.00,,,0.08,WeatherCatV1.02B3,2013-10-06 23:04:00,
2013-10-06 18:09:00,68.5,56.3,29.91,West,260,0.0,2.0,65,0.00,,,0.08,WeatherCatV1.02B3,2013-10-06 23:09:00,
2013-10-06 18:14:00,68.4,55.7,29.92,West,268,0.0,3.0,64,0.00,,,0.08,WeatherCatV1.02B3,2013-10-06 23:14:00,
2013-10-06 18:19:00,68.4,55.3,29.92,SW,219,3.0,5.0,63,0.00,,,0.08,WeatherCatV1.02B3,2013-10-06 23:19:00,
2013-10-06 18:24:00,68.4,55.3,29.93,WNW,303,0.0,1.0,63,0.00,,,0.08,WeatherCatV1.02B3,2013-10-06 23:24:00,
2013-10-06 18:29:00,68.3,54.8,29.92,WSW,245,1.0,4.0,62,0.00,,,0.08,WeatherCatV1.02B3,2013-10-06 23:29:00,
2013-10-06 18:34:00,68.3,54.8,29.92,West,277,0.0,4.0,62,0.00,,,0.08,WeatherCatV1.02B3,2013-10-06 23:34:00,
2013-10-06 18:39:00,68.1,54.6,29.93,NW,321,0.0,3.0,62,0.00,,,0.08,WeatherCatV1.02B3,2013-10-06 23:39:00,
2013-10-06 18:44:00,67.9,54.8,29.93,NNE,27,0.0,1.0,63,0.00,,,0.08,WeatherCatV1.02B3,2013-10-06 23:44:00,
2013-10-06 18:49:00,67.7,54.6,29.92,WNW,297,1.0,3.0,63,0.00,,,0.08,WeatherCatV1.02B3,2013-10-06 23:49:00,
2013-10-06 18:54:00,67.5,54.5,29.93,WSW,238,1.0,3.0,63,0.00,,,0.08,WeatherCatV1.02B3,2013-10-06 23:54:00,
2013-10-06 18:59:00,67.5,54.9,29.93,WNW,292,0.0,5.0,64,0.00,,,0.08,WeatherCatV1.02B3,2013-10-06 23:59:00,
2013-10-06 19:04:00,67.4,55.2,29.93,West,268,0.0,0.0,65,0.00,,,0.08,WeatherCatV1.02B3,2013-10-07 00:04:00,
2013-10-06 19:09:00,67.3,56.0,29.93,West,270,0.0,1.0,67,0.00,,,0.08,WeatherCatV1.02B3,2013-10-07 00:09:00,
2013-10-06 19:14:00,67.0,56.1,29.93,West,270,0.0,1.0,68,0.00,,,0.08,WeatherCatV1.02B3,2013-10-07 00:14:00,
2013-10-06 19:19:00,66.7,56.2,29.93,WNW,290,0.0,1.0,69,0.00,,,0.08,WeatherCatV1.02B3,2013-10-07 00:19:00,
2013-10-06 19:24:00,66.4,56.3,29.94,NW,307,0.0,4.0,70,0.00,,,0.08,WeatherCatV1.02B3,2013-10-07 00:24:00,
2013-10-06 19:29:00,66.1,56.0,29.94,West,267,1.0,1.0,70,0.00,,,0.08,WeatherCatV1.02B3,2013-10-07 00:29:00,
2013-10-06 19:34:00,65.8,55.3,29.94,WNW,286,1.0,2.0,69,0.00,,,0.08,WeatherCatV1.02B3,2013-10-07 00:34:00,
2013-10-06 19:39:00,65.7,54.8,29.94,WNW,292,0.0,0.0,68,0.00,,,0.08,WeatherCatV1.02B3,2013-10-07 00:39:00,
2013-10-06 19:44:00,65.7,54.8,29.94,WSW,238,0.0,4.0,68,0.00,,,0.08,WeatherCatV1.02B3,2013-10-07 00:44:00,
2013-10-06 19:49:00,65.6,54.7,29.95,West,273,0.0,1.0,68,0.00,,,0.08,WeatherCatV1.02B3,2013-10-07 00:49:00,
2013-10-06 19:54:00,65.5,54.7,29.95,West,262,0.0,2.0,68,0.00,,,0.08,WeatherCatV1.02B3,2013-10-07 00:54:00,
2013-10-06 19:59:00,65.4,55.0,29.95,NW,309,0.0,0.0,69,0.00,,,0.08,WeatherCatV1.02B3,2013-10-07 00:59:00,
2013-10-06 20:04:00,65.4,54.6,29.96,WSW,241,0.0,1.0,68,0.00,,,0.08,WeatherCatV1.02B3,2013-10-07 01:04:00,
2013-10-06 20:09:00,65.4,54.6,29.96,WSW,241,0.0,1.0,68,0.00,,,0.08,WeatherCatV1.02B3,2013-10-07 01:09:00,
2013-10-06 20:14:00,65.3,54.5,29.96,WSW,241,0.0,1.0,68,0.00,,,0.08,WeatherCatV1.02B3,2013-10-07 01:14:00,
2013-10-06 20:19:00,65.0,54.6,29.96,WNW,282,0.0,1.0,69,0.00,,,0.08,WeatherCatV1.02B3,2013-10-07 01:19:00,
2013-10-06 20:24:00,64.9,54.5,29.97,NW,311,1.0,1.0,69,0.00,,,0.08,WeatherCatV1.02B3,2013-10-07 01:24:00,
2013-10-06 20:29:00,64.9,54.1,29.97,WNW,302,0.0,0.0,68,0.00,,,0.08,WeatherCatV1.02B3,2013-10-07 01:29:00,
2013-10-06 20:34:00,64.8,54.0,29.97,West,262,0.0,1.0,68,0.00,,,0.08,WeatherCatV1.02B3,2013-10-07 01:34:00,
2013-10-06 20:39:00,64.7,53.9,29.97,WNW,290,0.0,0.0,68,0.00,,,0.08,WeatherCatV1.02B3,2013-10-07 01:39:00,
2013-10-06 20:44:00,64.6,53.8,29.98,West,263,0.0,1.0,68,0.00,,,0.08,WeatherCatV1.02B3,2013-10-07 01:44:00,
2013-10-06 20:49:00,64.5,54.1,29.98,West,266,0.0,0.0,69,0.00,,,0.08,WeatherCatV1.02B3,2013-10-07 01:49:00,
2013-10-06 20:54:00,64.4,54.0,29.98,West,275,0.0,1.0,69,0.00,,,0.08,WeatherCatV1.02B3,2013-10-07 01:54:00,
2013-10-06 20:59:00,64.2,54.2,29.98,West,275,0.0,0.0,70,0.00,,,0.08,WeatherCatV1.02B3,2013-10-07 01:59:00,
2013-10-06 21:04:00,64.0,54.0,29.99,West,277,0.0,1.0,70,0.00,,,0.08,WeatherCatV1.02B3,2013-10-07 02:04:00,
2013-10-06 21:09:00,63.7,53.7,29.98,WSW,240,0.0,0.0,70,0.00,,,0.08,WeatherCatV1.02B3,2013-10-07 02:09:00,
2013-10-06 21:14:00,63.3,53.7,29.99,WSW,240,0.0,0.0,71,0.00,,,0.08,WeatherCatV1.02B3,2013-10-07 02:14:00,
2013-10-06 21:19:00,63.0,53.8,29.99,WSW,239,0.0,1.0,72,0.00,,,0.08,WeatherCatV1.02B3,2013-10-07 02:19:00,
2013-10-06 21:24:00,62.7,53.5,29.99,WSW,240,0.0,0.0,72,0.00,,,0.08,WeatherCatV1.02B3,2013-10-07 02:24:00,
2013-10-06 21:29:00,62.5,53.7,29.99,WSW,239,0.0,0.0,73,0.00,,,0.08,WeatherCatV1.02B3,2013-10-07 02:29:00,
2013-10-06 21:34:00,62.3,53.5,29.99,WSW,239,0.0,1.0,73,0.00,,,0.08,WeatherCatV1.02B3,2013-10-07 02:34:00,
2013-10-06 21:39:00,62.3,53.5,29.99,WSW,240,0.0,0.0,73,0.00,,,0.08,WeatherCatV1.02B3,2013-10-07 02:39:00,
2013-10-06 21:44:00,62.2,53.8,29.99,WSW,239,0.0,0.0,74,0.00,,,0.08,WeatherCatV1.02B3,2013-10-07 02:44:00,
2013-10-06 21:49:00,62.1,53.7,29.99,WSW,240,0.0,0.0,74,0.00,,,0.08,WeatherCatV1.02B3,2013-10-07 02:49:00,
2013-10-06 21:54:00,61.9,53.5,29.99,WSW,240,0.0,0.0,74,0.00,,,0.08,WeatherCatV1.02B3,2013-10-07 02:54:00,
2013-10-06 21:59:00,61.8,53.8,29.99,WSW,239,0.0,0.0,75,0.00,,,0.08,WeatherCatV1.02B3,2013-10-07 02:59:00,
2013-10-06 22:04:00,61.8,53.8,30.00,WSW,239,0.0,1.0,75,0.00,,,0.08,WeatherCatV1.02B3,2013-10-07 03:04:00,
2013-10-06 22:09:00,61.9,53.5,30.00,West,259,0.0,0.0,74,0.00,,,0.08,WeatherCatV1.02B3,2013-10-07 03:09:00,
2013-10-06 22:14:00,62.0,54.0,30.00,West,259,0.0,0.0,75,0.00,,,0.08,WeatherCatV1.02B3,2013-10-07 03:14:00,
2013-10-06 22:19:00,62.0,53.6,30.01,WSW,253,0.0,1.0,74,0.00,,,0.08,WeatherCatV1.02B3,2013-10-07 03:19:00,
2013-10-06 22:24:00,62.0,53.6,30.01,WSW,253,0.0,0.0,74,0.00,,,0.08,WeatherCatV1.02B3,2013-10-07 03:24:00,
2013-10-06 22:29:00,61.9,53.9,30.00,WSW,253,0.0,0.0,75,0.00,,,0.08,WeatherCatV1.02B3,2013-10-07 03:29:00,
2013-10-06 22:34:00,61.8,53.8,30.00,NNW,335,0.0,0.0,75,0.00,,,0.08,WeatherCatV1.02B3,2013-10-07 03:34:00,
2013-10-06 22:39:00,61.6,54.0,30.00,NNW,335,0.0,0.0,76,0.00,,,0.08,WeatherCatV1.02B3,2013-10-07 03:39:00,
2013-10-06 22:44:00,61.3,54.0,30.01,NNW,335,0.0,0.0,77,0.00,,,0.08,WeatherCatV1.02B3,2013-10-07 03:44:00,
2013-10-06 22:49:00,61.1,53.8,30.00,NNW,335,0.0,0.0,77,0.00,,,0.08,WeatherCatV1.02B3,2013-10-07 03:49:00,
2013-10-06 22:54:00,60.9,54.0,30.00,NNW,335,0.0,0.0,78,0.00,,,0.08,WeatherCatV1.02B3,2013-10-07 03:54:00,
2013-10-06 22:59:00,60.7,53.8,30.01,NNW,335,0.0,0.0,78,0.00,,,0.08,WeatherCatV1.02B3,2013-10-07 03:59:00,
2013-10-06 23:01:00,60.6,53.7,30.01,NNW,335,0.0,0.0,78,0.00,,,0.08,WeatherCatV1.02B3,2013-10-07 04:01:00,
2013-10-06 23:06:00,60.5,54.0,30.00,NNW,335,0.0,0.0,79,0.00,,,0.08,WeatherCatV1.02B3,2013-10-07 04:06:00,
2013-10-06 23:11:00,60.4,53.9,30.00,NNW,335,0.0,0.0,79,0.00,,,0.08,WeatherCatV1.02B3,2013-10-07 04:11:00,
2013-10-06 23:16:00,60.3,53.8,30.00,NNW,335,0.0,0.0,79,0.00,,,0.08,WeatherCatV1.02B3,2013-10-07 04:16:00,
2013-10-06 23:21:00,60.2,54.0,30.00,NNW,335,0.0,0.0,80,0.00,,,0.08,WeatherCatV1.02B3,2013-10-07 04:21:00,
2013-10-06 23:26:00,60.1,53.9,30.00,NNW,335,0.0,0.0,80,0.00,,,0.08,WeatherCatV1.02B3,2013-10-07 04:26:00,
2013-10-06 23:31:00,60.0,53.8,30.00,NNW,335,0.0,0.0,80,0.00,,,0.08,WeatherCatV1.02B3,2013-10-07 04:31:00,
2013-10-06 23:36:00,60.0,53.8,30.00,NNW,335,0.0,0.0,80,0.00,,,0.08,WeatherCatV1.02B3,2013-10-07 04:36:00,
2013-10-06 23:41:00,60.1,53.9,30.00,NNW,335,0.0,0.0,80,0.00,,,0.08,WeatherCatV1.02B3,2013-10-07 04:41:00,
2013-10-06 23:46:00,60.1,53.9,29.99,NNW,335,0.0,0.0,80,0.00,,,0.08,WeatherCatV1.02B3,2013-10-07 04:46:00,
2013-10-06 23:51:00,60.0,54.1,30.00,NNW,335,0.0,0.0,81,0.00,,,0.08,WeatherCatV1.02B3,2013-10-07 04:51:00,
2013-10-06 23:56:00,59.9,54.1,29.99,NNW,335,0.0,0.0,81,0.00,,,0.08,WeatherCatV1.02B3,2013-10-07 04:56:00,